TimeCST,TemperatureF,Dew PointF,Humidity,Sea Level PressureIn,VisibilityMPH,Wind Direction,Wind SpeedMPH,Gust SpeedMPH,PrecipitationIn,Events,Conditions,WindDirDegrees,DateUTC
12:12 AM,24.8,17.6,74,30.16,10.0,NNW,6.9,-,N/A,,Clear,330,2012-11-26 06:12:00
12:32 AM,24.8,17.6,74,30.17,10.0,NNW,10.4,-,N/A,,Clear,330,2012-11-26 06:32:00
12:53 AM,24.8,15.8,69,30.17,10.0,NW,11.5,-,N/A,,Clear,320,2012-11-26 06:53:00
1:12 AM,24.8,15.8,69,30.18,10.0,NW,16.1,-,N/A,,Scattered Clouds,320,2012-11-26 07:12:00
1:32 AM,24.8,17.6,74,30.19,10.0,NNW,15.0,-,N/A,,Mostly Cloudy,330,2012-11-26 07:32:00
1:53 AM,23.0,15.8,74,30.20,10.0,NW,15.0,-,N/A,,Overcast,320,2012-11-26 07:53:00
2:12 AM,21.2,14.0,74,30.21,10.0,NW,16.1,-,N/A,,Overcast,320,2012-11-26 08:12:00
2:32 AM,21.2,12.2,68,30.21,10.0,NNW,15.0,-,N/A,,Overcast,330,2012-11-26 08:32:00
2:53 AM,19.4,12.2,74,30.22,10.0,NNW,17.3,-,N/A,,Overcast,330,2012-11-26 08:53:00
3:12 AM,19.4,12.2,74,30.23,10.0,NNW,17.3,20.7,N/A,,Overcast,340,2012-11-26 09:12:00
3:32 AM,19.4,10.4,68,30.24,10.0,NNW,15.0,-,N/A,,Overcast,330,2012-11-26 09:32:00
3:53 AM,17.6,10.4,73,30.24,10.0,NNW,15.0,-,N/A,,Overcast,340,2012-11-26 09:53:00
4:12 AM,17.6,10.4,73,30.24,10.0,NNW,18.4,-,N/A,,Overcast,340,2012-11-26 10:12:00
4:32 AM,17.6,8.6,68,30.26,10.0,NNW,13.8,23.0,N/A,,Overcast,330,2012-11-26 10:32:00
4:53 AM,15.8,8.6,73,30.26,10.0,NNW,15.0,-,N/A,,Overcast,340,2012-11-26 10:53:00
5:12 AM,15.8,8.6,73,30.27,10.0,NW,10.4,-,N/A,,Mostly Cloudy,320,2012-11-26 11:12:00
5:33 AM,15.8,6.8,68,30.28,10.0,NW,13.8,-,N/A,,Clear,320,2012-11-26 11:33:00
5:52 AM,12.2,5.0,73,30.29,10.0,NNW,18.4,-,N/A,,Clear,330,2012-11-26 11:52:00
6:12 AM,12.2,5.0,73,30.29,10.0,NNW,17.3,-,N/A,,Clear,330,2012-11-26 12:12:00
6:33 AM,12.2,6.8,79,30.31,10.0,NW,15.0,-,N/A,,Clear,310,2012-11-26 12:33:00
6:52 AM,10.4,5.0,79,30.31,10.0,NNW,11.5,-,N/A,,Clear,330,2012-11-26 12:52:00
7:12 AM,10.4,5.0,79,30.32,10.0,NW,13.8,20.7,N/A,,Clear,320,2012-11-26 13:12:00
7:33 AM,10.4,3.2,73,30.34,10.0,NW,13.8,17.3,N/A,,Clear,320,2012-11-26 13:33:00
7:52 AM,10.4,3.2,73,30.34,10.0,NW,10.4,-,N/A,,Clear,320,2012-11-26 13:52:00
8:12 AM,10.4,3.2,73,30.36,10.0,NW,13.8,17.3,N/A,,Clear,320,2012-11-26 14:12:00
8:32 AM,10.4,3.2,73,30.37,10.0,NNW,17.3,21.9,N/A,,Clear,330,2012-11-26 14:32:00
8:52 AM,10.4,3.2,73,30.37,10.0,NNW,13.8,19.6,N/A,,Clear,330,2012-11-26 14:52:00
9:13 AM,10.4,3.2,73,30.39,10.0,NW,15.0,-,N/A,,Clear,320,2012-11-26 15:13:00
9:32 AM,12.2,3.2,67,30.39,10.0,NNW,13.8,17.3,N/A,,Clear,340,2012-11-26 15:32:00
9:52 AM,12.2,5.0,73,30.40,10.0,NW,11.5,-,N/A,,Clear,320,2012-11-26 15:52:00
10:13 AM,14.0,3.2,62,30.40,10.0,NNW,12.7,-,N/A,,Clear,340,2012-11-26 16:13:00
10:32 AM,15.8,5.0,62,30.40,10.0,NW,13.8,17.3,N/A,,Clear,320,2012-11-26 16:32:00
10:52 AM,15.8,5.0,62,30.41,10.0,Calm,Calm,-,N/A,,Clear,0,2012-11-26 16:52:00
11:12 AM,15.8,5.0,62,30.40,10.0,NNW,12.7,18.4,N/A,,Clear,340,2012-11-26 17:12:00
11:25 AM,17.6,6.8,63,30.40,10.0,NNW,15.0,18.4,N/A,,Clear,330,2012-11-26 17:25:00
3:23 PM,23.0,6.8,50,30.37,10.0,Calm,Calm,-,N/A,,Clear,0,2012-11-26 21:23:00
3:33 PM,23.0,6.8,50,30.37,10.0,NW,5.8,-,N/A,,Clear,310,2012-11-26 21:33:00
3:52 PM,21.2,6.8,54,30.37,10.0,Calm,Calm,-,N/A,,Clear,0,2012-11-26 21:52:00
4:12 PM,21.2,6.8,54,30.37,10.0,Calm,Calm,-,N/A,,Clear,0,2012-11-26 22:12:00
4:52 PM,19.4,6.8,58,30.37,10.0,Calm,Calm,-,N/A,,Clear,0,2012-11-26 22:52:00
5:12 PM,15.8,5.0,62,30.36,10.0,Calm,Calm,-,N/A,,Clear,0,2012-11-26 23:12:00
5:33 PM,15.8,5.0,62,30.37,10.0,Calm,Calm,-,N/A,,Clear,0,2012-11-26 23:33:00
5:52 PM,15.8,6.8,68,30.36,10.0,Calm,Calm,-,N/A,,Clear,0,2012-11-26 23:52:00
6:12 PM,15.8,6.8,68,30.36,10.0,Calm,Calm,-,N/A,,Clear,0,2012-11-27 00:12:00
6:33 PM,12.2,5.0,73,30.36,10.0,Calm,Calm,-,N/A,,Clear,0,2012-11-27 00:33:00
6:52 PM,14.0,6.8,73,30.35,10.0,Calm,Calm,-,N/A,,Clear,0,2012-11-27 00:52:00
7:12 PM,14.0,6.8,73,30.35,10.0,Calm,Calm,-,N/A,,Clear,0,2012-11-27 01:12:00
7:33 PM,12.2,6.8,79,30.35,10.0,Calm,Calm,-,N/A,,Clear,0,2012-11-27 01:33:00
7:52 PM,15.8,6.8,68,30.35,10.0,Calm,Calm,-,N/A,,Clear,0,2012-11-27 01:52:00
8:13 PM,12.2,6.8,79,30.36,10.0,Calm,Calm,-,N/A,,Clear,0,2012-11-27 02:13:00
8:33 PM,12.2,5.0,73,30.35,10.0,Calm,Calm,-,N/A,,Clear,0,2012-11-27 02:33:00
8:52 PM,14.0,6.8,73,30.34,10.0,Calm,Calm,-,N/A,,Clear,0,2012-11-27 02:52:00
9:33 PM,14.0,6.8,73,30.34,10.0,Calm,Calm,-,N/A,,Clear,0,2012-11-27 03:33:00
9:52 PM,15.8,8.6,73,30.33,10.0,Calm,Calm,-,N/A,,Clear,0,2012-11-27 03:52:00
10:13 PM,15.8,8.6,73,30.33,10.0,Calm,Calm,-,N/A,,Clear,0,2012-11-27 04:13:00
10:33 PM,15.8,8.6,73,30.32,10.0,SW,10.4,-,N/A,,Clear,220,2012-11-27 04:33:00
10:52 PM,15.8,8.6,73,30.31,10.0,SW,9.2,-,N/A,,Clear,220,2012-11-27 04:52:00
11:13 PM,15.8,8.6,73,30.31,10.0,SSW,8.1,-,N/A,,Clear,210,2012-11-27 05:13:00
11:33 PM,17.6,8.6,68,30.31,10.0,SW,8.1,-,N/A,,Clear,230,2012-11-27 05:33:00
11:52 PM,17.6,8.6,68,30.31,10.0,Calm,Calm,-,N/A,,Clear,0,2012-11-27 05:52:00